Location: Sternwarte-Kraichtal
(49.1689°N, 8.6996°E)
Time: 19:29:13
(UTC+02:00)

Vanguard 2 Rocket - Pass Details

Date: 27 May 2022
Orbit: 553 x 3323 km, 32.9° (Epoch: 02 July)

Event Time Altitude Azimuth Distance (km) Brightness Sun altitude
Rises 19:50:34 0° 270° (W) 6,340 12.7 11.6°
Reaches altitude 10° 19:56:58 10° 255° (WSW) 4,764 11.6 10.6°
Maximum altitude 20:04:21 18° 219° (SW) 3,382 10.1 9.5°
Drops below altitude 10° 20:09:51 10° 180° (S) 3,360 9.6 8.7°
Sets 20:13:17 0° 161° (SSE) 3,921 9.8 8.2°
